Location: Wien
(48.2082°N, 16.3738°E)
Time: 01:09:13
(UTC+02:00)

STARS - Pass Details

Date: 29 April 2024
Orbit: 605 x 620 km, 98.1° (Epoch: 19 May)

Event Time Altitude Azimuth Distance (km) Brightness Sun altitude
Rises 00:39:52 0° 18° (NNE) 2,895 ? -27.2°
Reaches altitude 10° 00:42:08 10° 25° (NNE) 1,982 ? -27.2°
Enters shadow 00:45:11 37° 57° (ENE) 955 ? -27.2°
